Lacon, IL

11:43 PM CST on December 05, 2019 (GMT -0600)
Lacon

Weather History for KC75 - October, 2019

Change the Weather History Date:

Monday, October 14, 2019

  Actual Average (WUND) Record (WUND)
Temperature  
Mean Temperature 46 °F -  
Max Temperature 59 °F - - (-1)
Min Temperature 32 °F - - (-1)
Degree Days  
Heating Degree Days 20    
Moisture  
Dew Point 36 °F    
Average Humidity 74    
Maximum Humidity 98    
Minimum Humidity 43    
Precipitation  
Precipitation 0.00 in - - ()
Sea Level Pressure  
Sea Level Pressure 30.05 in    
Wind  
Wind Speed 1 mph (SSW)    
Max Wind Speed 8 mph    
Max Gust Speed -    
Visibility 10 miles    
Events      
Averages and records for this station are not official NWS values.
T = Trace of Precipitation, MM = Missing Value Source: NWS Daily Summary

Daily Weather History Graph

Daily Weather History Graph

Search for Another Location

Airport or City:

Astronomy

Oct. 14, 2019 Rise Set
Actual Time 7:07 AM CDT 6:18 PM CDT
Civil Twilight 6:39 AM CDT 6:46 PM CDT
Nautical Twilight 6:07 AM CDT 7:18 PM CDT
Astronomical Twilight 5:36 AM CDT 7:49 PM CDT
Moon 7:08 PM CDT (10/14) 7:39 AM CDT (10/14)
Length of Visible Light 12h 06m
Length of Day
11h 11m
Full, 99% of the Moon is Illuminated
Oct 14
Full
Oct 21
Last Quarter
Oct 27
New
Nov 4
First Quarter
Nov 12
Full

Hourly Weather History & Observations

Time (CDT) Temp. Windchill Dew Point Humidity Pressure Visibility Wind Dir Wind Speed Gust Speed Precip Events Conditions
12:15 AM 44.2 °F - 36.9 °F 75% 29.99 in 10.0 mi Calm Calm - N/A   Overcast
12:35 AM 45.0 °F - 35.6 °F 70% 29.99 in 10.0 mi Calm Calm - N/A   Overcast
12:55 AM 43.7 °F - 35.8 °F 74% 30.00 in 10.0 mi Calm Calm - N/A   Mostly Cloudy
1:15 AM 41.2 °F - 35.6 °F 81% 30.00 in 10.0 mi Calm Calm - N/A   Scattered Clouds
1:35 AM 39.6 °F - 35.6 °F 86% 30.00 in 10.0 mi Calm Calm - N/A   Clear
1:55 AM 38.3 °F - 35.6 °F 90% 30.01 in 10.0 mi Calm Calm - N/A   Clear
2:15 AM 37.8 °F - 35.4 °F 91% 30.01 in 10.0 mi Calm Calm - N/A   Clear
2:35 AM 37.0 °F - 34.9 °F 92% 30.02 in 10.0 mi Calm Calm - N/A   Clear
2:55 AM 36.5 °F - 34.7 °F 93% 30.02 in 10.0 mi Calm Calm - N/A   Clear
3:15 AM 36.5 °F - 34.3 °F 92% 30.03 in 10.0 mi Calm Calm - N/A   Clear
3:35 AM 36.1 °F - 34.0 °F 92% 30.03 in 10.0 mi Calm Calm - N/A   Clear
3:55 AM 35.8 °F - 34.0 °F 93% 30.03 in 10.0 mi Calm Calm - N/A   Clear
4:15 AM 34.7 °F - 33.1 °F 94% 30.02 in 10.0 mi Calm Calm - N/A   Clear
4:35 AM 34.7 °F - 33.3 °F 94% 30.03 in 10.0 mi Calm Calm - N/A   Clear
4:55 AM 34.7 °F - 33.1 °F 94% 30.03 in 10.0 mi Calm Calm - N/A   Clear
5:15 AM 34.2 °F - 33.1 °F 96% 30.04 in 10.0 mi Calm Calm - N/A   Clear
5:35 AM 33.6 °F - 32.4 °F 95% 30.05 in 10.0 mi Calm Calm - N/A   Clear
5:55 AM 32.9 °F - 32.0 °F 96% 30.06 in 10.0 mi Calm Calm - N/A   Clear
6:15 AM 33.8 °F - 32.9 °F 96% 30.07 in 10.0 mi Calm Calm - N/A   Clear
6:35 AM 33.1 °F - 32.2 °F 96% 30.07 in 10.0 mi Calm Calm - N/A   Clear
6:55 AM 32.7 °F - 32.0 °F 97% 30.08 in 10.0 mi Calm Calm - N/A   Clear
7:10 AM 33.1 °F - 32.2 °F 96% 30.08 in 10.0 mi Calm Calm - N/A   Clear
7:35 AM 32.7 °F - 32.2 °F 98% 30.09 in 10.0 mi Calm Calm - N/A   Clear
7:55 AM 36.7 °F - 36.0 °F 97% 30.10 in 10.0 mi Calm Calm - N/A   Clear
8:15 AM 37.9 °F - 36.5 °F 95% 30.10 in 10.0 mi Calm Calm - N/A   Clear
8:35 AM 39.6 °F - 37.6 °F 93% 30.11 in 10.0 mi Calm Calm - N/A   Clear
8:55 AM 41.4 °F - 37.9 °F 88% 30.11 in 10.0 mi Calm Calm - N/A   Clear
9:15 AM 43.2 °F - 37.8 °F 81% 30.11 in 10.0 mi Calm Calm - N/A   Clear
9:35 AM 44.8 °F - 35.6 °F 70% 30.12 in 10.0 mi Calm Calm - N/A   Clear
9:55 AM 45.7 °F - 33.4 °F 62% 30.11 in 10.0 mi Calm Calm - N/A   Clear
10:15 AM 46.8 °F - 34.0 °F 61% 30.11 in 10.0 mi WNW 4.6 mph - N/A   Clear
10:35 AM 47.1 °F - 34.5 °F 62% 30.11 in 10.0 mi Calm Calm - N/A   Clear
10:55 AM 48.6 °F - 34.7 °F 59% 30.11 in 10.0 mi NE 3.5 mph - N/A   Clear
11:15 AM 49.5 °F - 34.3 °F 56% 30.11 in 10.0 mi Calm Calm - N/A   Clear
11:35 AM 50.0 °F - 32.5 °F 51% 30.11 in 10.0 mi WNW 4.6 mph - N/A   Clear
12:15 PM 51.4 °F - 33.4 °F 50% 30.11 in 10.0 mi SW 4.6 mph - N/A   Clear
12:35 PM 52.3 °F - 34.3 °F 50% 30.10 in 10.0 mi Calm Calm - N/A   Clear
1:15 PM 54.1 °F - 34.7 °F 48% 30.09 in 10.0 mi WNW 4.6 mph - N/A   Clear
1:35 PM 54.9 °F - 36.3 °F 50% 30.08 in 10.0 mi SSW 5.8 mph - N/A   Clear
1:55 PM 55.0 °F - 36.9 °F 50% 30.08 in 10.0 mi SW 5.8 mph - N/A   Clear
2:15 PM 55.8 °F - 36.5 °F 48% 30.06 in 10.0 mi WSW 3.5 mph - N/A   Clear
2:35 PM 56.5 °F - 35.6 °F 46% 30.06 in 10.0 mi SW 5.8 mph - N/A   Clear
2:55 PM 57.7 °F - 37.0 °F 46% 30.05 in 10.0 mi West 8.1 mph - N/A   Clear
3:15 PM 58.1 °F - 37.2 °F 46% 30.05 in 10.0 mi West 6.9 mph - N/A   Clear
3:35 PM 58.8 °F - 36.9 °F 44% 30.05 in 10.0 mi West 8.1 mph - N/A   Clear
3:55 PM 59.0 °F - 37.4 °F 45% 30.04 in 10.0 mi SSW 6.9 mph - N/A   Clear
4:15 PM 59.0 °F - 37.4 °F 45% 30.04 in 10.0 mi WSW 5.8 mph - N/A   Clear
4:35 PM 59.5 °F - 37.2 °F 43% 30.04 in 10.0 mi SW 3.5 mph - N/A   Clear
4:55 PM 59.0 °F - 37.2 °F 44% 30.03 in 10.0 mi Calm Calm - N/A   Clear
5:15 PM 58.1 °F - 38.3 °F 48% 30.03 in 10.0 mi South 4.6 mph - N/A   Clear
5:35 PM 56.8 °F - 38.8 °F 51% 30.03 in 10.0 mi South 3.5 mph - N/A   Clear
5:55 PM 56.3 °F - 38.1 °F 51% 30.03 in 10.0 mi Calm Calm - N/A   Clear
6:15 PM 52.2 °F - 40.8 °F 65% 30.02 in 10.0 mi Calm Calm - N/A   Clear
6:35 PM 48.7 °F - 40.5 °F 73% 30.03 in 10.0 mi Calm Calm - N/A   Clear
6:55 PM 46.9 °F - 39.7 °F 76% 30.03 in 10.0 mi Calm Calm - N/A   Clear
7:10 PM 44.8 °F 43.3 °F 39.6 °F 82% 30.03 in 10.0 mi SE 3.5 mph - N/A   Clear
7:35 PM 45.0 °F 43.5 °F 39.2 °F 80% 30.03 in 10.0 mi SSE 3.5 mph - N/A   Clear
7:55 PM 44.8 °F - 38.7 °F 79% 30.03 in 10.0 mi Calm Calm - N/A   Clear
8:15 PM 43.9 °F 41.3 °F 39.0 °F 83% 30.03 in 10.0 mi SE 4.6 mph - N/A   Clear
8:35 PM 43.9 °F - 38.8 °F 82% 30.03 in 10.0 mi Calm Calm - N/A   Clear
8:55 PM 43.3 °F - 38.5 °F 83% 30.03 in 10.0 mi Calm Calm - N/A   Clear
9:15 PM 42.6 °F - 38.3 °F 85% 30.03 in 10.0 mi Calm Calm - N/A   Clear
9:35 PM 42.1 °F - 37.6 °F 84% 30.02 in 10.0 mi Calm Calm - N/A   Clear
9:55 PM 41.9 °F - 37.4 °F 84% 30.02 in 10.0 mi Calm Calm - N/A   Clear
10:15 PM 42.3 °F 40.5 °F 37.0 °F 82% 30.01 in 10.0 mi SSE 3.5 mph - N/A   Clear
10:35 PM 43.7 °F 42.1 °F 36.5 °F 76% 30.01 in 10.0 mi South 3.5 mph - N/A   Clear
10:55 PM 43.5 °F 40.9 °F 36.7 °F 77% 30.00 in 10.0 mi South 4.6 mph - N/A   Clear
11:15 PM 43.7 °F 41.1 °F 36.0 °F 74% 30.00 in 10.0 mi South 4.6 mph - N/A   Clear
11:35 PM 44.1 °F - 36.0 °F 73% 30.01 in 10.0 mi Calm Calm - N/A   Clear
11:55 PM 45.0 °F 43.5 °F 36.0 °F 71% 30.00 in 10.0 mi SSE 3.5 mph - N/A   Clear